Location: Melque
(41.0517°N, 4.4694°W)
Time: 21:26:39
(UTC+00:00)

Meteor 2-20 - Pass Details

Date: 22 March 2026
Orbit: 939 x 958 km, 82.5° (Epoch: 11 April)

Event Time Altitude Azimuth Distance (km) Brightness Sun altitude
Rises 05:10:07 0° 147° (SSE) 3,611 7.8 -13.5°
Reaches altitude 10° 05:13:08 10° 133° (SE) 2,674 7.3 -13.0°
Maximum altitude 05:17:42 22° 84° (E) 1,937 7.2 -12.1°
Drops below altitude 10° 05:22:17 10° 36° (NE) 2,694 7.5 -11.3°
Sets 05:25:19 0° 22° (NNE) 3,646 8.0 -10.7°
